[[{"header":{"parameterUnit":"m.s-1","parameterCategory":1,"la1":30.2991,"la2":30.254,"lo1":-89.0895,"lo2":-89.0444,"dy":0.0017,"dx":0.0017,"nx":28,"ny":28,"refTime":"2025-04-12T09:00:00:Z","depth":0,"parameterNumber":2,"parameterNumberName":"U-component_of_WINDS"},"data":[0,0,0,0,0,0,0,0,0,0,0,0,0,0,0,0,0,0,0,0,0,0,0,0,0,0,0,0,0,0,0,0,0,0,0,0,0,0,0,0,0,0,0,0,0,0,0,0,0,0,0,0,0,0,0,0,0,0,0.9922,0.9923,0,1.001,1.0011,1.0012,1.0059,1.0059,1.0059,1.0059,1.015,1.0153,1.0155,0,0,0,0,0,0,0,0,0,0,0,0,0,0.9799,0.9801,0.9922,0.9923,0.9924,1.0009,1.0011,1.0012,1.0059,1.0059,1.0059,1.006,1.015,1.0152,1.0155,0,0,0,0,0,0,0,0,0,0,0,0,0,0.9866,0.9802,0.9922,0.9958,0.9962,1.0009,1.0011,1.0012,1.0059,1.0059,1.0059,1.006,1.0149,1.0152,1.0155,1.0173,0,0,1.0166,1.0168,0,0,0,0,0,0,0,0,0.9862,0.9871,0.9952,0.9956,0.9961,1.0024,1.0001,1.0066,1.0059,1.0022,1.0059,1.006,1.0108,1.0115,1.0131,1.0178,1.0182,1.0166,1.0168,1.017,1.0171,0,0,0,0,0,0,0,0.9858,0.9867,0.9957,0.9953,0.9958,0.9971,0.9981,1.0013,1.0063,1.0026,1.0029,1.0039,1.0111,1.0128,1.0133,1.0183,1.0166,1.0169,1.0171,1.0173,1.025,1.025,0,0,0,0,0,0,0.9847,0.9863,0.9954,0.9959,0.9911,0.9973,0.9984,1.0003,1.0063,1.0072,1.0039,1.0041,1.0122,1.0129,1.0137,1.0163,1.017,1.0173,1.0175,1.025,1.025,1.025,0,0,0,0,0,0,0.9844,0.9855,0.9951,0.9912,0.9926,0.9975,0.9996,1.0005,1.0022,1.0073,1.0082,1.0047,1.0122,1.0132,1.0164,1.0166,1.0175,1.0178,1.025,1.025,1.025,1.0213,0,0,0,0,0,0,0.984,0.9853,0.986,0.9912,0.9927,0.9975,0.9996,1.0006,1.0027,1.0031,1.0083,1.0092,1.0123,1.0159,1.0168,1.0171,1.0181,1.025,1.025,1.025,1.0215,1.0212,1.021,0,0,0,0,0,0.9836,0.9846,0.986,0.9871,0.9936,0.9975,0.9984,1.002,1.0027,1.0035,1.0068,1.009,1.0165,1.0162,1.0172,1.0177,1.025,1.025,1.025,1.0216,1.0213,1.021,0,0,0,0,0,0,0.9793,0.9853,0.987,0.9897,0.9931,0.9983,0.9994,1.0015,1.0048,1.005,1.0093,1.0104,1.0133,1.0158,1.0153,1.0198,1.021,1.0212,1.018,1.0178,1.0175,1.0168,1.0183,0,0,0,0,0,0.9786,0.9812,0.9864,0.9883,0.99,0.9944,0.9962,0.9986,1.0023,1.0038,1.0073,1.0109,1.0141,1.0161,1.0193,1.0219,1.0231,1.0227,1.0225,1.0223,1.0224,1.0241,1.024,1.025,1.025,1.025,0,0,0.9774,0.981,0.9824,0.9876,0.9905,0.9931,0.9955,0.9982,1.0003,1.0042,1.0075,1.0102,1.0145,1.0174,1.0189,1.0197,1.0224,1.0223,1.0221,1.0223,1.0241,1.024,1.0239,1.025,1.025,1.025,0,0,0.9764,0.9794,0.9813,0.9842,0.9886,0.9915,0.992,0.997,0.999,1.0023,1.0054,1.0079,1.0133,1.0162,1.0184,1.0187,1.0209,1.0197,1.0184,1.02,1.02,1.0199,1.0201,1.0201,1.0198,1.0198,1.0198,0,0.9742,0.9783,0.9821,0.9846,0.9869,0.9906,0.9927,0.9953,1.0005,1.002,1.0028,1.0096,1.0128,1.0165,1.0166,1.0182,1.019,1.0191,1.0196,1.0196,1.0197,1.0199,1.0199,1.0196,1.0196,1.0196,1.0197,0,0.9755,0.9783,0.9794,0.9843,0.9867,0.989,0.9932,0.9952,0.9974,1.0003,1.0038,1.0077,1.0118,1.0129,1.0151,1.017,1.0173,1.0188,1.0201,1.0193,1.0196,1.0197,1.0193,1.0194,1.0195,1.0195,0,0,0.9719,0.979,0.9793,0.9816,0.9868,0.9891,0.9917,0.9957,0.9973,1.0008,1.0031,1.0076,1.0091,1.0116,1.0142,1.0156,1.0157,1.017,1.0171,1.0166,1.0181,1.017,1.017,1.0172,1.0173,1.0173,1.0178,0,0.9717,0.9763,0.9799,0.9832,0.9859,0.9896,0.9918,0.9953,0.9981,1.0009,1.0041,1.0072,1.0089,1.0104,1.012,1.0154,1.0161,1.0154,1.0195,1.0196,1.0183,1.0172,1.0159,1.0162,1.0179,1.018,1.018,0,0.972,0.9754,0.979,0.984,0.9853,0.9872,0.9912,0.9938,0.9979,0.9999,1.0027,1.0055,1.0085,1.0095,1.0137,1.0132,1.0151,1.0171,1.0172,1.0177,1.0187,1.0176,1.0164,1.0164,1.0182,1.0182,1.0181,0,0.969,0.9745,0.9774,0.9793,0.9852,0.9865,0.989,0.9932,0.9954,0.9989,1.0005,1.0043,1.0064,1.0094,1.0132,1.0136,1.0171,1.0184,1.0189,1.0188,1.0194,1.0193,1.0184,1.0206,1.0206,1.0206,1.0206,0,0.9684,0.9704,0.9762,0.9779,0.9804,0.9846,0.9869,0.9898,0.9935,0.9959,0.9994,1.0017,1.0065,1.0094,1.0124,1.0155,1.0165,1.0182,1.019,1.0179,1.0177,1.0192,1.0193,1.0206,1.0206,1.0206,1.0206,0,0.9654,0.9694,0.9728,0.9781,0.9796,0.9811,0.9858,0.9877,0.9908,0.9939,0.9949,0.9998,1.0034,1.0075,1.0124,1.0145,1.0174,1.0185,1.016,1.0164,1.0166,1.0166,1.0167,1.0169,1.0189,1.0189,1.0189,0,0.9647,0.9664,0.972,0.9739,0.9763,0.9793,0.9817,0.9859,0.9881,0.993,0.9944,0.9983,1.0016,1.0072,1.0112,1.0151,1.0164,1.0162,1.017,1.0159,1.0164,1.0162,1.0165,1.0159,1.0158,1.0158,1.0158,0,0.9631,0.965,0.9681,0.972,0.9747,0.9779,0.9813,0.9827,0.9877,0.9901,0.9938,0.9964,1.0015,1.0053,1.0097,1.0125,1.015,1.0155,1.0158,1.0147,1.0132,1.0141,1.0153,1.0155,1.0155,1.0155,1.0155,1.0155,0.9613,0.963,0.9672,0.9707,0.9737,0.9768,0.9789,0.9823,0.9855,0.9899,0.9923,0.996,1.0003,1.0064,1.0091,1.0122,1.013,1.0134,1.0135,1.0136,1.0133,1.0127,1.013,1.013,1.013,1.013,1.013,0,0.9598,0.9627,0.9659,0.9706,0.9733,0.9754,0.9794,0.9816,0.9848,0.9885,0.9917,0.9961,0.9999,1.0043,1.0084,1.01,1.0113,1.0109,1.0109,1.0115,1.0123,1.0116,1.0099,1.0099,1.0099,1.0099,1.0099,1.0099,0.9594,0.9624,0.9648,0.9695,0.9724,0.9761,0.9782,0.9811,0.9842,0.9889,0.992,0.9949,0.9989,1.0034,1.007,1.0082,1.0096,1.0089,1.0104,1.0111,1.0114,1.0116,1.011,1.0092,1.0092,1.0094,1.0094,1.0094]},{"header":{"parameterUnit":"m.s-1","parameterCategory":1,"la1":30.2991,"la2":30.254,"lo1":-89.0895,"lo2":-89.0444,"dy":0.0017,"dx":0.0017,"nx":28,"ny":28,"refTime":"2025-04-12T09:00:00:Z","depth":0,"parameterNumber":3,"parameterNumberName":"V-component_of_WINDS"},"data":[0,0,0,0,0,0,0,0,0,0,0,0,0,0,0,0,0,0,0,0,0,0,0,0,0,0,0,0,0,0,0,0,0,0,0,0,0,0,0,0,0,0,0,0,0,0,0,0,0,0,0,0,0,0,0,0,0,0,-3.1837,-3.1837,0,-3.186,-3.186,-3.186,-3.192,-3.1921,-3.1922,-3.1923,-3.194,-3.1939,-3.1938,0,0,0,0,0,0,0,0,0,0,0,0,0,-3.1841,-3.184,-3.1837,-3.1837,-3.1838,-3.186,-3.186,-3.186,-3.1919,-3.1921,-3.1922,-3.1924,-3.194,-3.1939,-3.1938,0,0,0,0,0,0,0,0,0,0,0,0,0,-3.1848,-3.184,-3.1837,-3.187,-3.1873,-3.186,-3.186,-3.186,-3.1919,-3.1921,-3.1923,-3.1925,-3.194,-3.1939,-3.1938,-3.1893,0,0,-3.1935,-3.1934,0,0,0,0,0,0,0,0,-3.1848,-3.1848,-3.1865,-3.1868,-3.1871,-3.1889,-3.1867,-3.1871,-3.1919,-3.1901,-3.1923,-3.1926,-3.1921,-3.1921,-3.1921,-3.1893,-3.1894,-3.1935,-3.1934,-3.1933,-3.1933,0,0,0,0,0,0,0,-3.1847,-3.1848,-3.1846,-3.1865,-3.1869,-3.1882,-3.1885,-3.1868,-3.19,-3.1903,-3.1907,-3.191,-3.1923,-3.1922,-3.1922,-3.1894,-3.1935,-3.1934,-3.1933,-3.1932,-3.1833,-3.1831,0,0,0,0,0,0,-3.1843,-3.1847,-3.1845,-3.1847,-3.1864,-3.1881,-3.1884,-3.1881,-3.19,-3.1905,-3.1908,-3.1912,-3.1923,-3.1923,-3.1923,-3.1873,-3.1933,-3.1932,-3.1932,-3.1835,-3.1833,-3.1831,0,0,0,0,0,0,-3.1843,-3.1842,-3.1844,-3.1848,-3.1849,-3.1879,-3.1875,-3.1881,-3.188,-3.1904,-3.1909,-3.1902,-3.1925,-3.1924,-3.1901,-3.1874,-3.1932,-3.1931,-3.1837,-3.1834,-3.1832,-3.1771,0,0,0,0,0,0,-3.1843,-3.1842,-3.1825,-3.1847,-3.1849,-3.1823,-3.1873,-3.188,-3.1879,-3.1885,-3.19,-3.1904,-3.1926,-3.1902,-3.19,-3.1874,-3.193,-3.184,-3.1836,-3.1833,-3.1776,-3.1766,-3.1759,0,0,0,0,0,-3.1842,-3.1805,-3.1824,-3.1824,-3.1829,-3.1821,-3.1822,-3.185,-3.1876,-3.186,-3.1876,-3.1903,-3.1878,-3.1899,-3.1897,-3.187,-3.1842,-3.1837,-3.1833,-3.1779,-3.1768,-3.1759,0,0,0,0,0,0,-3.1776,-3.1808,-3.183,-3.1799,-3.1807,-3.1831,-3.1811,-3.1837,-3.1836,-3.1841,-3.1875,-3.1878,-3.185,-3.1857,-3.1881,-3.1829,-3.1864,-3.1859,-3.1824,-3.1814,-3.1806,-3.1804,-3.1929,0,0,0,0,0,-3.1758,-3.1751,-3.1779,-3.1749,-3.1752,-3.1781,-3.1778,-3.18,-3.1809,-3.1812,-3.1826,-3.1832,-3.1826,-3.182,-3.1815,-3.1777,-3.1782,-3.1758,-3.1749,-3.1742,-3.1737,-3.172,-3.171,-3.1816,-3.1816,-3.1816,0,0,-3.172,-3.1737,-3.173,-3.1736,-3.1745,-3.1735,-3.1783,-3.177,-3.1763,-3.1809,-3.1789,-3.1799,-3.1808,-3.1778,-3.1765,-3.1784,-3.171,-3.1737,-3.1731,-3.173,-3.1715,-3.1705,-3.1696,-3.1813,-3.1814,-3.1814,0,0,-3.1647,-3.1659,-3.1637,-3.1646,-3.166,-3.168,-3.1675,-3.1696,-3.1706,-3.1687,-3.1722,-3.1713,-3.1701,-3.1707,-3.1708,-3.1641,-3.1667,-3.1638,-3.1593,-3.1576,-3.1568,-3.1561,-3.1538,-3.1529,-3.1633,-3.1633,-3.1633,0,-3.1597,-3.1586,-3.1621,-3.1607,-3.1609,-3.1654,-3.1632,-3.1638,-3.1649,-3.1649,-3.167,-3.1658,-3.1667,-3.164,-3.1624,-3.1623,-3.1618,-3.1636,-3.1567,-3.156,-3.1554,-3.1532,-3.1524,-3.163,-3.163,-3.163,-3.1631,0,-3.1526,-3.1518,-3.1497,-3.1511,-3.1511,-3.1492,-3.1523,-3.1519,-3.1541,-3.1559,-3.154,-3.1553,-3.1553,-3.1548,-3.1568,-3.1524,-3.1536,-3.1561,-3.1598,-3.154,-3.152,-3.1512,-3.1625,-3.1626,-3.1627,-3.1628,0,0,-3.1408,-3.1445,-3.1437,-3.1445,-3.1465,-3.1459,-3.1443,-3.1446,-3.1442,-3.1449,-3.1436,-3.1427,-3.1452,-3.1454,-3.1475,-3.146,-3.1408,-3.1488,-3.1489,-3.1473,-3.1363,-3.1344,-3.1334,-3.1426,-3.1425,-3.1423,-3.1362,0,-3.134,-3.1318,-3.135,-3.132,-3.1313,-3.1357,-3.1344,-3.1355,-3.1371,-3.1367,-3.1385,-3.1379,-3.1411,-3.1413,-3.14,-3.1417,-3.1387,-3.1422,-3.1414,-3.1414,-3.1411,-3.1323,-3.1302,-3.1244,-3.1355,-3.1354,-3.1353,0,-3.1257,-3.1264,-3.1234,-3.126,-3.1259,-3.1246,-3.1253,-3.1249,-3.1263,-3.1276,-3.128,-3.1307,-3.1293,-3.1329,-3.131,-3.1334,-3.1333,-3.1341,-3.134,-3.134,-3.1379,-3.1322,-3.1226,-3.1217,-3.1341,-3.1342,-3.1343,0,-3.1177,-3.1178,-3.1161,-3.1166,-3.1196,-3.1186,-3.1198,-3.1214,-3.1214,-3.122,-3.1221,-3.1223,-3.1224,-3.1225,-3.1253,-3.1276,-3.1231,-3.1269,-3.1241,-3.1241,-3.1229,-3.1229,-3.1132,-3.1228,-3.1228,-3.1228,-3.1228,0,-3.1097,-3.1077,-3.1126,-3.1115,-3.1095,-3.1132,-3.111,-3.1126,-3.114,-3.1133,-3.117,-3.1162,-3.1199,-3.1195,-3.1216,-3.1198,-3.1197,-3.1208,-3.1213,-3.1205,-3.1203,-3.1204,-3.1209,-3.1226,-3.1226,-3.1227,-3.1227,0,-3.1003,-3.1035,-3.102,-3.105,-3.1058,-3.1041,-3.1067,-3.1058,-3.1079,-3.1069,-3.1069,-3.1101,-3.1098,-3.1126,-3.1127,-3.1142,-3.1114,-3.1127,-3.1111,-3.1115,-3.1086,-3.1089,-3.0986,-3.0975,-3.1077,-3.1076,-3.1075,0,-3.095,-3.0937,-3.0968,-3.0968,-3.0978,-3.0976,-3.0978,-3.1015,-3.1016,-3.1032,-3.1021,-3.1023,-3.1026,-3.1019,-3.1041,-3.1044,-3.1057,-3.1021,-3.1057,-3.1049,-3.1057,-3.1058,-3.1058,-3.1013,-3.1012,-3.1011,-3.101,0,-3.0854,-3.0872,-3.0875,-3.0885,-3.0887,-3.0896,-3.0906,-3.0903,-3.0943,-3.0942,-3.0942,-3.0944,-3.0949,-3.0949,-3.0957,-3.0967,-3.0995,-3.0999,-3.0993,-3.0983,-3.0975,-3.098,-3.1091,-3.1,-3.1001,-3.1002,-3.1002,-3.1003,-3.078,-3.0771,-3.0793,-3.0796,-3.0809,-3.0819,-3.0813,-3.0835,-3.0836,-3.0845,-3.0866,-3.0862,-3.0878,-3.0892,-3.09,-3.0897,-3.0914,-3.0905,-3.0903,-3.09,-3.0895,-3.0976,-3.0898,-3.0898,-3.0899,-3.0899,-3.0899,0,-3.0687,-3.0704,-3.0707,-3.0723,-3.0725,-3.0755,-3.0769,-3.0769,-3.0766,-3.078,-3.0784,-3.0785,-3.0787,-3.081,-3.0815,-3.0808,-3.0821,-3.0808,-3.0809,-3.0811,-3.0879,-3.0884,-3.0798,-3.0798,-3.0798,-3.0798,-3.0798,-3.0798,-3.0639,-3.0626,-3.0647,-3.0641,-3.0658,-3.0658,-3.0664,-3.0673,-3.0685,-3.0685,-3.0688,-3.0705,-3.0723,-3.073,-3.0733,-3.074,-3.074,-3.0723,-3.0734,-3.0796,-3.0806,-3.0816,-3.0821,-3.0722,-3.0722,-3.0667,-3.0666,-3.0666]}]]